Time,TemperatureF,DewpointF,PressureIn,WindDirection,WindDirectionDegrees,WindSpeedMPH,WindSpeedGustMPH,Humidity,HourlyPrecipIn,Conditions,Clouds,dailyrainin,SoftwareType,DateUTC
2013-09-07 00:00:00,60.4,59.0,30.10,SE,131,0.0,0.0,95,0.00,,---,0.00,VWS V14.01,2013-09-07 04:00:00,
2013-09-07 00:01:00,60.5,59.1,30.10,SE,131,0.0,0.0,95,0.00,,---,0.00,VWS V14.01,2013-09-07 04:01:00,
2013-09-07 00:02:00,60.5,59.1,30.10,SE,131,0.0,0.0,95,0.00,,---,0.00,VWS V14.01,2013-09-07 04:02:00,
2013-09-07 00:07:00,60.2,58.8,30.10,SE,131,0.0,0.0,95,0.00,,---,0.00,VWS V14.01,2013-09-07 04:07:00,
2013-09-07 00:12:00,59.9,58.8,30.10,SE,131,0.0,0.0,96,0.00,,---,0.00,VWS V14.01,2013-09-07 04:12:00,
2013-09-07 00:17:00,59.8,58.7,30.10,SE,131,0.0,0.0,96,0.00,,---,0.00,VWS V14.01,2013-09-07 04:17:00,
2013-09-07 00:22:00,60.4,59.3,30.10,SE,131,0.0,0.0,96,0.00,,---,0.00,VWS V14.01,2013-09-07 04:22:00,
2013-09-07 00:27:00,60.5,59.1,30.10,SE,131,0.0,0.0,95,0.00,,---,0.00,VWS V14.01,2013-09-07 04:27:00,
2013-09-07 00:32:00,60.3,58.9,30.10,SE,131,0.0,0.0,95,0.00,,---,0.00,VWS V14.01,2013-09-07 04:32:00,
2013-09-07 00:37:00,60.2,59.1,30.10,SE,131,0.0,0.0,96,0.00,,---,0.00,VWS V14.01,2013-09-07 04:37:00,
2013-09-07 00:42:00,60.3,58.9,30.10,SE,131,0.0,0.0,95,0.00,,---,0.00,VWS V14.01,2013-09-07 04:42:00,
2013-09-07 00:47:00,60.5,59.1,30.10,SE,131,1.0,1.0,95,0.00,,---,0.00,VWS V14.01,2013-09-07 04:47:00,
2013-09-07 00:52:00,60.4,59.0,30.09,SE,131,0.0,0.0,95,0.00,,---,0.00,VWS V14.01,2013-09-07 04:52:00,
2013-09-07 00:57:00,60.4,59.0,30.09,SE,131,0.0,0.0,95,0.00,,---,0.00,VWS V14.01,2013-09-07 04:57:00,
2013-09-07 01:02:00,60.0,58.6,30.10,SE,131,0.0,0.0,95,0.00,,---,0.00,VWS V14.01,2013-09-07 05:02:00,
2013-09-07 01:07:00,59.8,58.7,30.10,SE,131,0.0,0.0,96,0.00,,---,0.00,VWS V14.01,2013-09-07 05:07:00,
2013-09-07 01:12:00,59.6,58.5,30.09,SE,131,0.0,0.0,96,0.00,,---,0.00,VWS V14.01,2013-09-07 05:12:00,
2013-09-07 01:17:00,59.7,58.6,30.10,SE,131,0.0,0.0,96,0.00,,---,0.00,VWS V14.01,2013-09-07 05:17:00,
2013-09-07 01:22:00,59.8,58.7,30.10,SE,131,0.0,0.0,96,0.00,,---,0.00,VWS V14.01,2013-09-07 05:22:00,
2013-09-07 01:27:00,60.0,58.9,30.09,SE,131,0.0,0.0,96,0.00,,---,0.00,VWS V14.01,2013-09-07 05:27:00,
2013-09-07 01:32:00,59.9,58.8,30.10,SE,131,0.0,0.0,96,0.00,,---,0.00,VWS V14.01,2013-09-07 05:32:00,
2013-09-07 01:37:00,60.0,58.9,30.10,SE,131,0.0,0.0,96,0.00,,---,0.00,VWS V14.01,2013-09-07 05:37:00,
2013-09-07 01:42:00,60.2,58.8,30.09,SE,131,1.0,2.0,95,0.00,,---,0.00,VWS V14.01,2013-09-07 05:42:00,
2013-09-07 01:47:00,60.2,58.8,30.09,SE,131,1.0,2.0,95,0.00,,---,0.00,VWS V14.01,2013-09-07 05:47:00,
2013-09-07 01:52:00,59.9,58.8,30.09,SE,131,2.0,2.0,96,0.00,,---,0.00,VWS V14.01,2013-09-07 05:52:00,
2013-09-07 01:57:00,59.4,58.3,30.09,SE,131,2.0,3.0,96,0.00,,---,0.00,VWS V14.01,2013-09-07 05:57:00,
2013-09-07 02:02:00,59.0,58.2,30.09,SE,131,3.0,3.0,97,0.00,,---,0.00,VWS V14.01,2013-09-07 06:02:00,
2013-09-07 02:07:00,58.9,58.0,30.09,SE,131,2.0,2.0,97,0.00,,---,0.00,VWS V14.01,2013-09-07 06:07:00,
2013-09-07 02:12:00,58.8,58.2,30.09,SE,131,2.0,3.0,98,0.00,,---,0.00,VWS V14.01,2013-09-07 06:12:00,
2013-09-07 02:17:00,59.0,58.4,30.09,SE,131,3.0,3.0,98,0.00,,---,0.00,VWS V14.01,2013-09-07 06:17:00,
2013-09-07 02:22:00,58.9,58.3,30.09,SE,131,2.0,2.0,98,0.00,,---,0.00,VWS V14.01,2013-09-07 06:22:00,
2013-09-07 02:27:00,59.2,58.6,30.09,SE,131,2.0,2.0,98,0.00,,---,0.00,VWS V14.01,2013-09-07 06:27:00,
2013-09-07 02:32:00,59.1,58.5,30.09,SE,131,2.0,3.0,98,0.00,,---,0.00,VWS V14.01,2013-09-07 06:32:00,
2013-09-07 02:37:00,59.1,58.2,30.09,SE,131,2.0,3.0,97,0.00,,---,0.00,VWS V14.01,2013-09-07 06:37:00,
2013-09-07 02:42:00,58.7,57.8,30.08,SE,131,3.0,3.0,97,0.00,,---,0.00,VWS V14.01,2013-09-07 06:42:00,
2013-09-07 02:47:00,58.6,58.0,30.08,SE,131,3.0,3.0,98,0.00,,---,0.00,VWS V14.01,2013-09-07 06:47:00,
2013-09-07 02:52:00,58.5,57.9,30.08,SE,131,2.0,3.0,98,0.00,,---,0.00,VWS V14.01,2013-09-07 06:52:00,
2013-09-07 02:57:00,58.5,57.9,30.08,SE,131,2.0,2.0,98,0.00,,---,0.00,VWS V14.01,2013-09-07 06:57:00,
2013-09-07 03:02:00,58.6,58.0,30.08,SE,131,1.0,2.0,98,0.00,,---,0.00,VWS V14.01,2013-09-07 07:02:00,
2013-09-07 03:07:00,58.5,57.9,30.08,SE,131,0.0,1.0,98,0.00,,---,0.00,VWS V14.01,2013-09-07 07:07:00,
2013-09-07 03:12:00,58.4,57.8,30.08,SE,131,1.0,2.0,98,0.00,,---,0.00,VWS V14.01,2013-09-07 07:12:00,
2013-09-07 03:17:00,58.4,57.8,30.08,SE,131,1.0,2.0,98,0.00,,---,0.00,VWS V14.01,2013-09-07 07:17:00,
2013-09-07 03:22:00,58.7,58.1,30.08,SE,131,0.0,0.0,98,0.00,,---,0.00,VWS V14.01,2013-09-07 07:22:00,
2013-09-07 03:27:00,58.9,58.3,30.07,SE,131,0.0,0.0,98,0.00,,---,0.00,VWS V14.01,2013-09-07 07:27:00,
2013-09-07 03:32:00,59.1,58.2,30.07,SE,131,1.0,1.0,97,0.00,,---,0.00,VWS V14.01,2013-09-07 07:32:00,
2013-09-07 03:37:00,59.4,58.3,30.07,SE,131,0.0,0.0,96,0.00,,---,0.00,VWS V14.01,2013-09-07 07:37:00,
2013-09-07 03:42:00,59.4,58.0,30.08,SE,131,0.0,0.0,95,0.00,,---,0.00,VWS V14.01,2013-09-07 07:42:00,
2013-09-07 03:47:00,59.6,58.2,30.07,SE,131,1.0,2.0,95,0.00,,---,0.00,VWS V14.01,2013-09-07 07:47:00,
2013-09-07 03:52:00,59.6,57.9,30.07,SE,131,1.0,1.0,94,0.00,,---,0.00,VWS V14.01,2013-09-07 07:52:00,
2013-09-07 03:57:00,59.4,58.0,30.08,SE,131,1.0,2.0,95,0.00,,---,0.00,VWS V14.01,2013-09-07 07:57:00,
2013-09-07 04:02:00,59.6,58.2,30.08,SE,131,1.0,1.0,95,0.00,,---,0.00,VWS V14.01,2013-09-07 08:02:00,
2013-09-07 04:07:00,59.6,58.2,30.08,SE,131,1.0,2.0,95,0.00,,---,0.00,VWS V14.01,2013-09-07 08:07:00,
2013-09-07 04:12:00,59.4,58.0,30.08,SE,131,0.0,1.0,95,0.00,,---,0.00,VWS V14.01,2013-09-07 08:12:00,
2013-09-07 04:17:00,59.2,58.1,30.07,SE,131,1.0,1.0,96,0.00,,---,0.00,VWS V14.01,2013-09-07 08:17:00,
2013-09-07 04:22:00,59.0,57.9,30.07,SE,131,0.0,1.0,96,0.00,,---,0.00,VWS V14.01,2013-09-07 08:22:00,
2013-09-07 04:27:00,58.9,58.0,30.07,SE,131,2.0,2.0,97,0.00,,---,0.00,VWS V14.01,2013-09-07 08:27:00,
2013-09-07 04:32:00,58.8,58.0,30.07,SE,131,1.0,2.0,97,0.00,,---,0.00,VWS V14.01,2013-09-07 08:32:00,
2013-09-07 04:37:00,58.8,58.0,30.07,SE,131,0.0,1.0,97,0.00,,---,0.00,VWS V14.01,2013-09-07 08:37:00,
2013-09-07 04:42:00,59.0,58.2,30.07,SE,131,0.0,1.0,97,0.00,,---,0.00,VWS V14.01,2013-09-07 08:42:00,
2013-09-07 04:47:00,58.7,57.8,30.07,SE,131,1.0,1.0,97,0.00,,---,0.00,VWS V14.01,2013-09-07 08:47:00,
2013-09-07 04:52:00,58.6,57.8,30.07,SE,131,1.0,1.0,97,0.00,,---,0.00,VWS V14.01,2013-09-07 08:52:00,
2013-09-07 04:56:00,58.8,58.0,30.07,SE,131,0.0,1.0,97,0.00,,---,0.00,VWS V14.01,2013-09-07 08:56:00,
2013-09-07 05:01:00,58.9,57.8,30.07,SE,131,1.0,2.0,96,0.00,,---,0.00,VWS V14.01,2013-09-07 09:01:00,
2013-09-07 05:06:00,59.1,58.0,30.07,SE,131,0.0,0.0,96,0.00,,---,0.00,VWS V14.01,2013-09-07 09:06:00,
2013-09-07 05:11:00,59.1,58.0,30.07,SE,131,1.0,2.0,96,0.00,,---,0.00,VWS V14.01,2013-09-07 09:11:00,
2013-09-07 05:16:00,58.8,57.7,30.07,SE,131,2.0,2.0,96,0.00,,---,0.00,VWS V14.01,2013-09-07 09:16:00,
2013-09-07 05:21:00,58.7,57.6,30.07,SE,131,1.0,2.0,96,0.00,,---,0.00,VWS V14.01,2013-09-07 09:21:00,
2013-09-07 05:26:00,58.5,57.4,30.07,SE,131,3.0,3.0,96,0.00,,---,0.00,VWS V14.01,2013-09-07 09:26:00,
2013-09-07 05:31:00,58.2,57.4,30.07,SE,131,2.0,2.0,97,0.00,,---,0.00,VWS V14.01,2013-09-07 09:31:00,
2013-09-07 05:36:00,58.2,57.4,30.07,SE,135,0.0,1.0,97,0.00,,---,0.00,VWS V14.01,2013-09-07 09:36:00,
2013-09-07 05:41:00,58.1,57.3,30.07,SE,135,0.0,0.0,97,0.00,,---,0.00,VWS V14.01,2013-09-07 09:41:00,
2013-09-07 05:46:00,57.9,57.1,30.07,SE,135,0.0,1.0,97,0.00,,---,0.00,VWS V14.01,2013-09-07 09:46:00,
2013-09-07 05:51:00,57.7,56.9,30.07,SE,135,0.0,1.0,97,0.00,,---,0.00,VWS V14.01,2013-09-07 09:51:00,
2013-09-07 05:56:00,57.5,56.7,30.08,SE,135,0.0,1.0,97,0.00,,---,0.00,VWS V14.01,2013-09-07 09:56:00,
2013-09-07 06:01:00,57.2,56.6,30.08,SE,135,1.0,1.0,98,0.00,,---,0.00,VWS V14.01,2013-09-07 10:01:00,
2013-09-07 06:06:00,57.3,57.0,30.08,SE,135,1.0,1.0,99,0.00,,---,0.00,VWS V14.01,2013-09-07 10:06:00,
2013-09-07 06:11:00,57.7,57.4,30.08,SE,135,0.0,1.0,99,0.00,,---,0.00,VWS V14.01,2013-09-07 10:11:00,
2013-09-07 06:16:00,58.0,57.7,30.08,SE,135,0.0,0.0,99,0.00,,---,0.00,VWS V14.01,2013-09-07 10:16:00,
2013-09-07 06:21:00,58.1,57.5,30.08,SE,135,0.0,1.0,98,0.00,,---,0.00,VWS V14.01,2013-09-07 10:21:00,
2013-09-07 06:26:00,58.3,57.5,30.08,SE,135,0.0,0.0,97,0.00,,---,0.00,VWS V14.01,2013-09-07 10:26:00,
2013-09-07 06:31:00,58.4,57.6,30.08,SE,135,0.0,1.0,97,0.00,,---,0.00,VWS V14.01,2013-09-07 10:31:00,
2013-09-07 06:36:00,58.7,57.8,30.08,SE,135,0.0,0.0,97,0.00,,---,0.00,VWS V14.01,2013-09-07 10:36:00,
2013-09-07 06:41:00,58.8,57.7,30.08,SE,135,1.0,1.0,96,0.00,,---,0.00,VWS V14.01,2013-09-07 10:41:00,
2013-09-07 06:46:00,58.7,57.6,30.08,SE,135,1.0,1.0,96,0.00,,---,0.00,VWS V14.01,2013-09-07 10:46:00,
2013-09-07 06:51:00,58.3,57.2,30.08,SE,135,1.0,1.0,96,0.00,,---,0.00,VWS V14.01,2013-09-07 10:51:00,
2013-09-07 06:56:00,57.7,56.9,30.08,SE,135,2.0,2.0,97,0.00,,---,0.00,VWS V14.01,2013-09-07 10:56:00,
2013-09-07 07:01:00,57.3,56.7,30.09,SE,135,1.0,1.0,98,0.00,,---,0.00,VWS V14.01,2013-09-07 11:01:00,
2013-09-07 07:06:00,57.4,57.1,30.09,SE,135,0.0,1.0,99,0.00,,---,0.00,VWS V14.01,2013-09-07 11:06:00,
2013-09-07 07:11:00,57.4,57.1,30.09,SE,135,1.0,1.0,99,0.00,,---,0.00,VWS V14.01,2013-09-07 11:11:00,
2013-09-07 07:16:00,57.4,57.1,30.09,SE,135,1.0,1.0,99,0.00,,---,0.00,VWS V14.01,2013-09-07 11:16:00,
2013-09-07 07:21:00,57.3,57.0,30.09,SE,135,0.0,1.0,99,0.00,,---,0.00,VWS V14.01,2013-09-07 11:21:00,
2013-09-07 07:26:00,57.2,56.6,30.09,SE,135,1.0,1.0,98,0.00,,---,0.00,VWS V14.01,2013-09-07 11:26:00,
2013-09-07 07:31:00,57.0,56.7,30.09,SE,135,1.0,2.0,99,0.00,,---,0.00,VWS V14.01,2013-09-07 11:31:00,
2013-09-07 07:36:00,56.9,56.6,30.09,SE,135,2.0,2.0,99,0.00,,---,0.00,VWS V14.01,2013-09-07 11:36:00,
2013-09-07 07:41:00,57.1,57.1,30.09,SE,135,0.0,2.0,100,0.00,,---,0.00,VWS V14.01,2013-09-07 11:41:00,
2013-09-07 07:46:00,57.3,57.3,30.09,SE,135,1.0,1.0,100,0.00,,---,0.00,VWS V14.01,2013-09-07 11:46:00,
2013-09-07 07:51:00,57.4,57.4,30.09,SE,135,2.0,2.0,100,0.00,,---,0.00,VWS V14.01,2013-09-07 11:51:00,
2013-09-07 07:56:00,57.5,57.5,30.09,SE,135,2.0,2.0,100,0.00,,---,0.00,VWS V14.01,2013-09-07 11:56:00,
2013-09-07 08:01:00,57.6,57.6,30.09,SE,135,2.0,2.0,100,0.00,,---,0.00,VWS V14.01,2013-09-07 12:01:00,
2013-09-07 08:06:00,57.7,57.7,30.09,SE,135,1.0,1.0,100,0.00,,---,0.00,VWS V14.01,2013-09-07 12:06:00,
2013-09-07 08:11:00,57.7,57.7,30.09,SE,135,0.0,0.0,100,0.00,,---,0.00,VWS V14.01,2013-09-07 12:11:00,
2013-09-07 08:16:00,57.8,57.8,30.10,SE,135,1.0,2.0,100,0.00,,---,0.00,VWS V14.01,2013-09-07 12:16:00,
2013-09-07 08:21:00,58.2,58.2,30.09,SE,135,2.0,3.0,100,0.00,,---,0.00,VWS V14.01,2013-09-07 12:21:00,
2013-09-07 08:26:00,58.3,58.3,30.10,SE,135,2.0,2.0,100,0.00,,---,0.00,VWS V14.01,2013-09-07 12:26:00,
2013-09-07 08:31:00,58.2,58.2,30.09,SE,135,1.0,2.0,100,0.00,,---,0.00,VWS V14.01,2013-09-07 12:31:00,
2013-09-07 08:36:00,58.3,58.3,30.10,SE,135,1.0,2.0,100,0.00,,---,0.00,VWS V14.01,2013-09-07 12:36:00,
2013-09-07 08:41:00,58.5,58.5,30.10,SE,135,0.0,0.0,100,0.00,,---,0.00,VWS V14.01,2013-09-07 12:41:00,
2013-09-07 08:46:00,58.5,58.2,30.10,SE,135,0.0,0.0,99,0.00,,---,0.00,VWS V14.01,2013-09-07 12:46:00,
2013-09-07 08:51:00,59.0,59.0,30.09,SE,135,0.0,0.0,100,0.00,,---,0.00,VWS V14.01,2013-09-07 12:51:00,
2013-09-07 08:56:00,59.0,58.7,30.10,SE,135,0.0,1.0,99,0.00,,---,0.00,VWS V14.01,2013-09-07 12:56:00,
2013-09-07 09:01:00,59.8,59.8,30.10,SE,135,0.0,0.0,100,0.00,,---,0.00,VWS V14.01,2013-09-07 13:01:00,
2013-09-07 09:06:00,59.8,59.2,30.10,SE,135,0.0,0.0,98,0.00,,---,0.00,VWS V14.01,2013-09-07 13:06:00,
2013-09-07 09:11:00,60.8,60.8,30.10,SE,135,0.0,0.0,100,0.00,,---,0.00,VWS V14.01,2013-09-07 13:11:00,
2013-09-07 09:16:00,60.6,59.8,30.10,SE,135,0.0,0.0,97,0.00,,---,0.00,VWS V14.01,2013-09-07 13:16:00,
2013-09-07 09:21:00,61.1,60.5,30.10,SE,135,2.0,2.0,98,0.00,,---,0.00,VWS V14.01,2013-09-07 13:21:00,
2013-09-07 09:26:00,60.9,59.8,30.10,SE,135,2.0,2.0,96,0.00,,---,0.00,VWS V14.01,2013-09-07 13:26:00,
2013-09-07 09:31:00,61.3,60.7,30.10,SE,141,1.0,1.0,98,0.00,,---,0.00,VWS V14.01,2013-09-07 13:31:00,
2013-09-07 09:36:00,61.8,61.2,30.10,SE,142,1.0,1.0,98,0.00,,---,0.00,VWS V14.01,2013-09-07 13:36:00,
2013-09-07 09:41:00,61.5,60.3,30.10,SE,141,1.0,1.0,96,0.00,,---,0.00,VWS V14.01,2013-09-07 13:41:00,
2013-09-07 09:46:00,61.0,60.2,30.10,SE,141,1.0,1.0,97,0.00,,---,0.00,VWS V14.01,2013-09-07 13:46:00,
2013-09-07 09:51:00,61.0,60.4,30.10,SE,143,1.0,1.0,98,0.00,,---,0.00,VWS V14.01,2013-09-07 13:51:00,
2013-09-07 09:56:00,61.3,60.2,30.10,SE,143,1.0,1.0,96,0.00,,---,0.00,VWS V14.01,2013-09-07 13:56:00,
2013-09-07 10:01:00,61.4,60.5,30.10,SE,143,0.0,0.0,97,0.00,,---,0.00,VWS V14.01,2013-09-07 14:01:00,
2013-09-07 10:06:00,61.9,61.0,30.10,SE,143,0.0,1.0,97,0.00,,---,0.00,VWS V14.01,2013-09-07 14:06:00,
2013-09-07 10:11:00,62.7,61.5,30.10,SE,143,0.0,1.0,96,0.00,,---,0.00,VWS V14.01,2013-09-07 14:11:00,
2013-09-07 10:16:00,62.0,60.6,30.10,SE,143,0.0,0.0,95,0.00,,---,0.00,VWS V14.01,2013-09-07 14:16:00,
2013-09-07 10:21:00,61.8,60.9,30.10,SE,143,0.0,0.0,97,0.00,,---,0.00,VWS V14.01,2013-09-07 14:21:00,
2013-09-07 10:26:00,63.0,61.8,30.11,SE,143,0.0,1.0,96,0.00,,---,0.00,VWS V14.01,2013-09-07 14:26:00,
2013-09-07 10:31:00,63.7,61.3,30.11,SE,143,0.0,1.0,92,0.00,,---,0.00,VWS V14.01,2013-09-07 14:31:00,
2013-09-07 10:36:00,62.6,60.8,30.11,South,180,1.0,2.0,94,0.00,,---,0.00,VWS V14.01,2013-09-07 14:36:00,
2013-09-07 10:41:00,63.8,62.3,30.11,ESE,116,2.0,3.0,95,0.00,,---,0.00,VWS V14.01,2013-09-07 14:41:00,
2013-09-07 10:46:00,63.9,61.8,30.11,SE,128,1.0,2.0,93,0.00,,---,0.00,VWS V14.01,2013-09-07 14:46:00,
2013-09-07 10:51:00,63.3,61.2,30.11,SE,128,0.0,1.0,93,0.00,,---,0.00,VWS V14.01,2013-09-07 14:51:00,
2013-09-07 10:56:00,63.6,61.5,30.10,SE,133,0.0,0.0,93,0.00,,---,0.00,VWS V14.01,2013-09-07 14:56:00,
2013-09-07 11:01:00,64.3,61.9,30.10,SE,133,0.0,0.0,92,0.00,,---,0.00,VWS V14.01,2013-09-07 15:01:00,
2013-09-07 11:06:00,65.3,63.2,30.11,SSE,162,0.0,2.0,93,0.00,,---,0.00,VWS V14.01,2013-09-07 15:06:00,
2013-09-07 11:11:00,64.7,61.7,30.11,SSE,162,0.0,0.0,90,0.00,,---,0.00,VWS V14.01,2013-09-07 15:11:00,
2013-09-07 11:16:00,64.7,62.0,30.11,SSE,162,0.0,1.0,91,0.00,,---,0.00,VWS V14.01,2013-09-07 15:16:00,
2013-09-07 11:21:00,66.1,63.4,30.11,SSE,162,0.0,1.0,91,0.00,,---,0.00,VWS V14.01,2013-09-07 15:21:00,
2013-09-07 11:26:00,67.7,63.4,30.11,SSE,162,0.0,1.0,86,0.00,,---,0.00,VWS V14.01,2013-09-07 15:26:00,
2013-09-07 11:31:00,68.3,63.6,30.11,SSW,200,1.0,1.0,85,0.00,,---,0.00,VWS V14.01,2013-09-07 15:31:00,
2013-09-07 11:36:00,67.2,63.5,30.11,West,277,0.0,1.0,88,0.00,,---,0.00,VWS V14.01,2013-09-07 15:36:00,
2013-09-07 11:41:00,68.4,62.7,30.11,SW,220,0.0,2.0,82,0.00,,---,0.00,VWS V14.01,2013-09-07 15:41:00,
2013-09-07 11:46:00,69.4,64.7,30.10,West,270,1.0,3.0,85,0.00,,---,0.00,VWS V14.01,2013-09-07 15:46:00,
2013-09-07 11:51:00,69.9,63.5,30.10,West,268,2.0,2.0,80,0.00,,---,0.00,VWS V14.01,2013-09-07 15:51:00,
2013-09-07 11:56:00,70.4,62.5,30.10,West,266,1.0,2.0,76,0.00,,---,0.00,VWS V14.01,2013-09-07 15:56:00,
2013-09-07 12:01:00,69.6,62.4,30.10,West,266,0.0,1.0,78,0.00,,---,0.00,VWS V14.01,2013-09-07 16:01:00,
2013-09-07 12:06:00,69.2,63.8,30.10,West,266,0.0,3.0,83,0.00,,---,0.00,VWS V14.01,2013-09-07 16:06:00,
2013-09-07 12:11:00,69.9,62.7,30.10,WSW,239,1.0,6.0,78,0.00,,---,0.00,VWS V14.01,2013-09-07 16:11:00,
2013-09-07 12:16:00,70.5,64.4,30.10,WSW,242,0.0,1.0,81,0.00,,---,0.00,VWS V14.01,2013-09-07 16:16:00,
2013-09-07 12:21:00,70.7,62.4,30.09,WNW,284,1.0,1.0,75,0.00,,---,0.00,VWS V14.01,2013-09-07 16:21:00,
2013-09-07 12:26:00,70.4,64.3,30.09,West,278,0.0,0.0,81,0.00,,---,0.00,VWS V14.01,2013-09-07 16:26:00,
2013-09-07 12:31:00,70.8,63.2,30.09,WNW,298,2.0,2.0,77,0.00,,---,0.00,VWS V14.01,2013-09-07 16:31:00,
2013-09-07 12:36:00,70.5,64.4,30.09,WNW,298,1.0,2.0,81,0.00,,---,0.00,VWS V14.01,2013-09-07 16:36:00,
2013-09-07 12:41:00,71.1,62.0,30.09,WNW,287,0.0,3.0,73,0.00,,---,0.00,VWS V14.01,2013-09-07 16:41:00,
2013-09-07 12:46:00,70.9,64.1,30.09,WNW,289,1.0,1.0,79,0.00,,---,0.00,VWS V14.01,2013-09-07 16:46:00,
2013-09-07 12:51:00,71.2,64.4,30.09,WNW,289,2.0,2.0,79,0.00,,---,0.00,VWS V14.01,2013-09-07 16:51:00,
2013-09-07 12:56:00,71.2,62.5,30.09,North,349,3.0,3.0,74,0.00,,---,0.00,VWS V14.01,2013-09-07 16:56:00,
2013-09-07 13:01:00,72.2,63.5,30.09,NW,307,1.0,5.0,74,0.00,,---,0.00,VWS V14.01,2013-09-07 17:01:00,
2013-09-07 13:06:00,72.0,63.7,30.08,WNW,291,0.0,2.0,75,0.00,,---,0.00,VWS V14.01,2013-09-07 17:06:00,
2013-09-07 13:11:00,72.6,63.8,30.08,West,262,0.0,1.0,74,0.00,,---,0.00,VWS V14.01,2013-09-07 17:11:00,
2013-09-07 13:16:00,72.3,63.9,30.08,West,262,2.0,2.0,75,0.00,,---,0.00,VWS V14.01,2013-09-07 17:16:00,
2013-09-07 13:21:00,72.6,63.1,30.08,West,267,1.0,2.0,72,0.00,,---,0.00,VWS V14.01,2013-09-07 17:21:00,
2013-09-07 13:26:00,72.6,63.8,30.08,West,267,1.0,1.0,74,0.00,,---,0.00,VWS V14.01,2013-09-07 17:26:00,
2013-09-07 13:31:00,70.4,62.1,30.08,West,267,2.0,2.0,75,0.00,,---,0.00,VWS V14.01,2013-09-07 17:31:00,
2013-09-07 13:36:00,70.9,64.1,30.08,West,259,2.0,6.0,79,0.00,,---,0.00,VWS V14.01,2013-09-07 17:36:00,
2013-09-07 13:41:00,71.6,63.6,30.08,WSW,254,0.0,2.0,76,0.00,,---,0.00,VWS V14.01,2013-09-07 17:41:00,
2013-09-07 13:46:00,70.2,62.7,30.08,WSW,254,1.0,2.0,77,0.00,,---,0.00,VWS V14.01,2013-09-07 17:46:00,
2013-09-07 13:51:00,70.6,63.0,30.08,WNW,285,1.0,1.0,77,0.00,,---,0.00,VWS V14.01,2013-09-07 17:51:00,
2013-09-07 13:56:00,72.3,63.9,30.07,West,278,0.0,1.0,75,0.00,,---,0.00,VWS V14.01,2013-09-07 17:56:00,
2013-09-07 14:01:00,72.4,65.2,30.07,NW,305,1.0,2.0,78,0.00,,---,0.00,VWS V14.01,2013-09-07 18:01:00,
2013-09-07 14:06:00,72.1,64.1,30.07,NW,305,0.0,1.0,76,0.00,,---,0.00,VWS V14.01,2013-09-07 18:06:00,
2013-09-07 14:11:00,72.5,62.6,30.07,West,271,1.0,2.0,71,0.00,,---,0.00,VWS V14.01,2013-09-07 18:11:00,
2013-09-07 14:16:00,72.9,64.9,30.07,SSE,158,1.0,2.0,76,0.00,,---,0.00,VWS V14.01,2013-09-07 18:16:00,
2013-09-07 14:21:00,72.4,63.7,30.07,West,279,0.0,1.0,74,0.00,,---,0.00,VWS V14.01,2013-09-07 18:21:00,
2013-09-07 14:26:00,72.7,63.2,30.07,WSW,251,2.0,3.0,72,0.00,,---,0.00,VWS V14.01,2013-09-07 18:26:00,
2013-09-07 14:31:00,72.2,64.2,30.07,SE,133,2.0,2.0,76,0.00,,---,0.00,VWS V14.01,2013-09-07 18:31:00,
2013-09-07 14:36:00,72.5,65.3,30.06,SW,231,1.0,1.0,78,0.00,,---,0.00,VWS V14.01,2013-09-07 18:36:00,
2013-09-07 14:41:00,72.3,63.2,30.06,West,264,2.0,4.0,73,0.00,,---,0.00,VWS V14.01,2013-09-07 18:41:00,
2013-09-07 14:46:00,72.3,65.4,30.06,West,262,1.0,2.0,79,0.00,,---,0.00,VWS V14.01,2013-09-07 18:46:00,
2013-09-07 14:51:00,72.6,63.1,30.06,WNW,287,1.0,2.0,72,0.00,,---,0.00,VWS V14.01,2013-09-07 18:51:00,
2013-09-07 14:56:00,72.0,64.4,30.06,West,277,0.0,1.0,77,0.00,,---,0.00,VWS V14.01,2013-09-07 18:56:00,
2013-09-07 15:01:00,73.1,66.2,30.06,West,262,1.0,2.0,79,0.00,,---,0.00,VWS V14.01,2013-09-07 19:01:00,
2013-09-07 15:06:00,73.1,64.7,30.06,West,262,0.0,1.0,75,0.00,,---,0.00,VWS V14.01,2013-09-07 19:06:00,
2013-09-07 15:11:00,71.5,63.2,30.06,West,262,1.0,1.0,75,0.00,,---,0.00,VWS V14.01,2013-09-07 19:11:00,
2013-09-07 15:16:00,69.7,62.9,30.06,West,262,0.0,1.0,79,0.00,,---,0.00,VWS V14.01,2013-09-07 19:16:00,
2013-09-07 15:21:00,69.5,63.8,30.05,West,262,0.0,1.0,82,0.00,,---,0.00,VWS V14.01,2013-09-07 19:21:00,
2013-09-07 15:26:00,69.3,62.9,30.05,West,262,0.0,1.0,80,0.00,,---,0.00,VWS V14.01,2013-09-07 19:26:00,
2013-09-07 15:31:00,69.3,63.9,30.05,West,262,1.0,3.0,83,0.00,,---,0.00,VWS V14.01,2013-09-07 19:31:00,
2013-09-07 15:36:00,70.8,63.6,30.05,West,262,0.0,1.0,78,0.00,,---,0.00,VWS V14.01,2013-09-07 19:36:00,
2013-09-07 15:41:00,69.7,62.9,30.05,WSW,241,2.0,2.0,79,0.00,,---,0.00,VWS V14.01,2013-09-07 19:41:00,
2013-09-07 15:46:00,68.6,63.2,30.05,SW,235,1.0,3.0,83,0.00,,---,0.00,VWS V14.01,2013-09-07 19:46:00,
2013-09-07 15:51:00,70.0,63.9,30.05,WSW,239,1.0,1.0,81,0.00,,---,0.00,VWS V14.01,2013-09-07 19:51:00,
2013-09-07 15:56:00,70.3,64.6,30.05,WSW,239,0.0,1.0,82,0.00,,---,0.00,VWS V14.01,2013-09-07 19:56:00,
2013-09-07 16:01:00,69.4,63.7,30.05,WSW,254,0.0,1.0,82,0.00,,---,0.00,VWS V14.01,2013-09-07 20:01:00,
2013-09-07 16:06:00,69.9,63.8,30.04,SW,221,2.0,2.0,81,0.00,,---,0.00,VWS V14.01,2013-09-07 20:06:00,
2013-09-07 16:11:00,71.5,65.4,30.04,WSW,253,1.0,1.0,81,0.00,,---,0.00,VWS V14.01,2013-09-07 20:11:00,
2013-09-07 16:16:00,72.3,65.4,30.04,West,264,0.0,2.0,79,0.00,,---,0.00,VWS V14.01,2013-09-07 20:16:00,
2013-09-07 16:21:00,72.3,63.9,30.03,SW,224,0.0,2.0,75,0.00,,---,0.00,VWS V14.01,2013-09-07 20:21:00,
2013-09-07 16:26:00,72.2,63.5,30.03,NNW,337,1.0,5.0,74,0.00,,---,0.00,VWS V14.01,2013-09-07 20:26:00,
2013-09-07 16:31:00,72.0,63.7,30.03,WSW,243,0.0,3.0,75,0.00,,---,0.00,VWS V14.01,2013-09-07 20:31:00,
2013-09-07 16:36:00,71.3,63.7,30.03,WSW,243,0.0,1.0,77,0.00,,---,0.00,VWS V14.01,2013-09-07 20:36:00,
2013-09-07 16:41:00,71.3,64.8,30.03,WSW,251,1.0,2.0,80,0.00,,---,0.00,VWS V14.01,2013-09-07 20:41:00,
2013-09-07 16:46:00,71.4,63.8,30.03,SW,233,2.0,2.0,77,0.00,,---,0.00,VWS V14.01,2013-09-07 20:46:00,
2013-09-07 16:51:00,71.4,64.2,30.02,WSW,247,1.0,4.0,78,0.00,,---,0.00,VWS V14.01,2013-09-07 20:51:00,
2013-09-07 16:56:00,70.9,63.3,30.02,West,273,0.0,1.0,77,0.00,,---,0.00,VWS V14.01,2013-09-07 20:56:00,
2013-09-07 17:01:00,71.1,64.6,30.02,WSW,254,0.0,1.0,80,0.00,,---,0.00,VWS V14.01,2013-09-07 21:01:00,
2013-09-07 17:06:00,70.2,64.1,30.02,WSW,251,1.0,1.0,81,0.00,,---,0.00,VWS V14.01,2013-09-07 21:06:00,
2013-09-07 17:11:00,69.8,62.6,30.02,WNW,296,0.0,2.0,78,0.00,,---,0.00,VWS V14.01,2013-09-07 21:11:00,
2013-09-07 17:16:00,69.0,63.6,30.02,WNW,296,0.0,0.0,83,0.00,,---,0.00,VWS V14.01,2013-09-07 21:16:00,
2013-09-07 17:21:00,68.6,63.6,30.02,WNW,296,0.0,0.0,84,0.00,,---,0.00,VWS V14.01,2013-09-07 21:21:00,
2013-09-07 17:26:00,68.9,63.5,30.02,WNW,296,0.0,1.0,83,0.00,,---,0.00,VWS V14.01,2013-09-07 21:26:00,
2013-09-07 17:31:00,69.5,62.7,30.02,West,273,2.0,2.0,79,0.00,,---,0.00,VWS V14.01,2013-09-07 21:31:00,
2013-09-07 17:36:00,69.8,64.1,30.02,WSW,253,1.0,1.0,82,0.00,,---,0.00,VWS V14.01,2013-09-07 21:36:00,
2013-09-07 17:41:00,69.5,63.4,30.02,SW,224,0.0,1.0,81,0.00,,---,0.00,VWS V14.01,2013-09-07 21:41:00,
2013-09-07 17:46:00,69.1,64.1,30.02,WSW,253,0.0,2.0,84,0.00,,---,0.00,VWS V14.01,2013-09-07 21:46:00,
2013-09-07 17:51:00,68.7,63.7,30.02,WSW,239,0.0,1.0,84,0.00,,---,0.00,VWS V14.01,2013-09-07 21:51:00,
2013-09-07 17:56:00,68.5,63.1,30.02,WSW,239,0.0,2.0,83,0.00,,---,0.00,VWS V14.01,2013-09-07 21:56:00,
2013-09-07 18:01:00,68.3,62.2,30.02,WSW,239,1.0,1.0,81,0.00,,---,0.00,VWS V14.01,2013-09-07 22:01:00,
2013-09-07 18:06:00,68.3,62.9,30.02,WSW,245,1.0,1.0,83,0.00,,---,0.00,VWS V14.01,2013-09-07 22:06:00,
2013-09-07 18:11:00,67.8,63.5,30.02,WSW,245,0.0,0.0,86,0.00,,---,0.00,VWS V14.01,2013-09-07 22:11:00,
2013-09-07 18:16:00,67.5,62.2,30.02,WSW,245,0.0,1.0,83,0.00,,---,0.00,VWS V14.01,2013-09-07 22:16:00,
2013-09-07 18:21:00,67.9,62.5,30.02,WSW,246,0.0,1.0,83,0.00,,---,0.00,VWS V14.01,2013-09-07 22:21:00,
2013-09-07 18:26:00,67.6,62.9,30.02,WSW,246,0.0,2.0,85,0.00,,---,0.00,VWS V14.01,2013-09-07 22:26:00,
2013-09-07 18:31:00,67.4,63.4,30.02,WSW,244,0.0,1.0,87,0.00,,---,0.00,VWS V14.01,2013-09-07 22:31:00,
2013-09-07 18:36:00,67.3,63.0,30.02,WSW,244,0.0,1.0,86,0.00,,---,0.00,VWS V14.01,2013-09-07 22:36:00,
2013-09-07 18:41:00,67.2,62.5,30.02,WSW,244,0.0,2.0,85,0.00,,---,0.00,VWS V14.01,2013-09-07 22:41:00,
2013-09-07 18:46:00,66.8,61.8,30.02,WSW,244,0.0,0.0,84,0.00,,---,0.00,VWS V14.01,2013-09-07 22:46:00,
2013-09-07 18:51:00,66.6,62.6,30.01,WSW,244,0.0,1.0,87,0.00,,---,0.00,VWS V14.01,2013-09-07 22:51:00,
2013-09-07 18:56:00,66.5,62.5,30.02,WSW,244,0.0,1.0,87,0.00,,---,0.00,VWS V14.01,2013-09-07 22:56:00,
2013-09-07 19:01:00,66.2,62.5,30.01,WSW,244,0.0,0.0,88,0.00,,---,0.00,VWS V14.01,2013-09-07 23:01:00,
2013-09-07 19:06:00,66.2,62.5,30.01,WSW,244,0.0,1.0,88,0.00,,---,0.00,VWS V14.01,2013-09-07 23:06:00,
2013-09-07 19:11:00,66.3,63.3,30.01,WSW,244,0.0,2.0,90,0.00,,---,0.00,VWS V14.01,2013-09-07 23:11:00,
2013-09-07 19:16:00,66.3,63.6,30.02,WSW,244,0.0,1.0,91,0.00,,---,0.00,VWS V14.01,2013-09-07 23:16:00,
2013-09-07 19:21:00,66.1,63.4,30.01,WSW,244,0.0,1.0,91,0.00,,---,0.00,VWS V14.01,2013-09-07 23:21:00,
2013-09-07 19:26:00,65.8,63.4,30.02,WSW,244,0.0,0.0,92,0.00,,---,0.00,VWS V14.01,2013-09-07 23:26:00,
2013-09-07 19:31:00,65.4,63.3,30.02,WSW,244,0.0,0.0,93,0.00,,---,0.00,VWS V14.01,2013-09-07 23:31:00,
2013-09-07 19:36:00,65.2,63.1,30.02,WSW,244,0.0,1.0,93,0.00,,---,0.00,VWS V14.01,2013-09-07 23:36:00,
2013-09-07 19:41:00,64.9,62.8,30.02,WSW,244,0.0,0.0,93,0.00,,---,0.00,VWS V14.01,2013-09-07 23:41:00,
2013-09-07 19:46:00,64.7,62.9,30.02,WSW,244,0.0,0.0,94,0.00,,---,0.00,VWS V14.01,2013-09-07 23:46:00,
2013-09-07 19:51:00,64.5,62.7,30.02,WSW,244,0.0,0.0,94,0.00,,---,0.00,VWS V14.01,2013-09-07 23:51:00,
2013-09-07 19:56:00,64.3,62.8,30.02,WSW,244,0.0,2.0,95,0.00,,---,0.00,VWS V14.01,2013-09-07 23:56:00,
2013-09-07 20:01:00,64.1,62.6,30.02,WSW,244,0.0,0.0,95,0.00,,---,0.00,VWS V14.01,2013-09-08 00:01:00,
2013-09-07 20:06:00,63.9,62.7,30.02,WSW,244,0.0,0.0,96,0.00,,---,0.00,VWS V14.01,2013-09-08 00:06:00,
2013-09-07 20:11:00,63.6,62.2,30.02,WSW,244,0.0,0.0,95,0.00,,---,0.00,VWS V14.01,2013-09-08 00:11:00,
2013-09-07 20:16:00,63.2,61.5,30.02,WSW,244,0.0,0.0,94,0.00,,---,0.00,VWS V14.01,2013-09-08 00:16:00,
2013-09-07 20:21:00,63.1,61.3,30.02,WSW,244,0.0,0.0,94,0.00,,---,0.00,VWS V14.01,2013-09-08 00:21:00,
2013-09-07 20:26:00,63.1,61.3,30.02,WSW,244,0.0,0.0,94,0.00,,---,0.00,VWS V14.01,2013-09-08 00:26:00,
2013-09-07 20:31:00,63.0,61.2,30.02,WSW,244,0.0,0.0,94,0.00,,---,0.00,VWS V14.01,2013-09-08 00:31:00,
2013-09-07 20:36:00,63.2,62.0,30.02,WSW,244,1.0,1.0,96,0.00,,---,0.00,VWS V14.01,2013-09-08 00:36:00,
2013-09-07 20:41:00,63.2,61.5,30.02,WSW,244,0.0,0.0,94,0.00,,---,0.00,VWS V14.01,2013-09-08 00:41:00,
2013-09-07 20:46:00,63.3,61.5,30.02,WSW,244,0.0,0.0,94,0.00,,---,0.00,VWS V14.01,2013-09-08 00:46:00,
2013-09-07 20:51:00,63.2,61.2,30.02,WSW,244,0.0,1.0,93,0.00,,---,0.00,VWS V14.01,2013-09-08 00:51:00,
2013-09-07 20:56:00,63.2,61.5,30.02,WSW,244,0.0,0.0,94,0.00,,---,0.00,VWS V14.01,2013-09-08 00:56:00,
2013-09-07 21:01:00,63.0,61.5,30.02,WSW,244,0.0,0.0,95,0.00,,---,0.00,VWS V14.01,2013-09-08 01:01:00,
2013-09-07 21:06:00,62.7,61.0,30.02,WSW,244,0.0,0.0,94,0.00,,---,0.00,VWS V14.01,2013-09-08 01:06:00,
2013-09-07 21:11:00,62.7,61.0,30.02,WSW,244,0.0,0.0,94,0.00,,---,0.00,VWS V14.01,2013-09-08 01:11:00,
2013-09-07 21:16:00,62.5,60.8,30.02,WSW,244,0.0,0.0,94,0.00,,---,0.00,VWS V14.01,2013-09-08 01:16:00,
2013-09-07 21:21:00,62.1,60.4,30.02,WSW,244,0.0,0.0,94,0.00,,---,0.00,VWS V14.01,2013-09-08 01:21:00,
2013-09-07 21:26:00,62.0,60.3,30.02,WSW,244,0.0,1.0,94,0.00,,---,0.00,VWS V14.01,2013-09-08 01:26:00,
2013-09-07 21:31:00,62.0,60.3,30.02,WSW,244,1.0,1.0,94,0.00,,---,0.00,VWS V14.01,2013-09-08 01:31:00,
2013-09-07 21:36:00,61.9,60.2,30.02,WSW,244,0.0,1.0,94,0.00,,---,0.00,VWS V14.01,2013-09-08 01:36:00,
2013-09-07 21:41:00,61.8,60.1,30.02,WSW,244,1.0,1.0,94,0.00,,---,0.00,VWS V14.01,2013-09-08 01:41:00,
2013-09-07 21:46:00,61.6,59.9,30.02,WSW,244,0.0,2.0,94,0.00,,---,0.00,VWS V14.01,2013-09-08 01:46:00,
2013-09-07 21:51:00,61.4,59.7,30.02,WSW,254,0.0,1.0,94,0.00,,---,0.00,VWS V14.01,2013-09-08 01:51:00,
2013-09-07 21:56:00,61.0,59.3,30.02,WSW,254,0.0,1.0,94,0.00,,---,0.00,VWS V14.01,2013-09-08 01:56:00,
2013-09-07 22:01:00,60.9,59.5,30.02,WSW,254,0.0,1.0,95,0.00,,---,0.00,VWS V14.01,2013-09-08 02:01:00,
2013-09-07 22:06:00,61.0,59.6,30.02,WSW,254,0.0,0.0,95,0.00,,---,0.00,VWS V14.01,2013-09-08 02:06:00,
2013-09-07 22:11:00,61.0,59.6,30.02,WSW,254,0.0,1.0,95,0.00,,---,0.00,VWS V14.01,2013-09-08 02:11:00,
2013-09-07 22:16:00,61.0,59.3,30.02,WSW,254,0.0,1.0,94,0.00,,---,0.00,VWS V14.01,2013-09-08 02:16:00,
2013-09-07 22:21:00,60.8,59.4,30.02,West,264,0.0,1.0,95,0.00,,---,0.00,VWS V14.01,2013-09-08 02:21:00,
2013-09-07 22:26:00,60.5,59.4,30.02,West,264,0.0,0.0,96,0.00,,---,0.00,VWS V14.01,2013-09-08 02:26:00,
2013-09-07 22:31:00,60.3,59.2,30.02,West,268,1.0,1.0,96,0.00,,---,0.00,VWS V14.01,2013-09-08 02:31:00,
2013-09-07 22:36:00,60.0,59.2,30.02,West,268,0.0,1.0,97,0.00,,---,0.00,VWS V14.01,2013-09-08 02:36:00,
2013-09-07 22:41:00,60.0,59.2,30.02,West,268,1.0,1.0,97,0.00,,---,0.00,VWS V14.01,2013-09-08 02:41:00,
2013-09-07 22:46:00,59.9,59.0,30.02,West,268,0.0,1.0,97,0.00,,---,0.00,VWS V14.01,2013-09-08 02:46:00,
2013-09-07 22:51:00,59.9,59.0,30.02,West,269,1.0,1.0,97,0.00,,---,0.00,VWS V14.01,2013-09-08 02:51:00,
2013-09-07 22:56:00,59.7,58.8,30.02,WNW,301,2.0,2.0,97,0.00,,---,0.00,VWS V14.01,2013-09-08 02:56:00,
2013-09-07 23:01:00,59.6,59.0,30.02,WNW,293,1.0,2.0,98,0.00,,---,0.00,VWS V14.01,2013-09-08 03:01:00,
2013-09-07 23:06:00,59.6,59.0,30.02,WNW,293,1.0,1.0,98,0.00,,---,0.00,VWS V14.01,2013-09-08 03:06:00,
2013-09-07 23:11:00,59.7,59.1,30.02,WNW,293,2.0,2.0,98,0.00,,---,0.00,VWS V14.01,2013-09-08 03:11:00,
2013-09-07 23:16:00,59.7,59.1,30.02,WNW,293,0.0,2.0,98,0.00,,---,0.00,VWS V14.01,2013-09-08 03:16:00,
2013-09-07 23:21:00,59.6,59.0,30.02,WNW,293,0.0,1.0,98,0.00,,---,0.00,VWS V14.01,2013-09-08 03:21:00,
2013-09-07 23:26:00,59.6,59.0,30.02,WNW,293,0.0,1.0,98,0.00,,---,0.00,VWS V14.01,2013-09-08 03:26:00,
2013-09-07 23:31:00,59.6,59.0,30.02,WNW,293,0.0,1.0,98,0.00,,---,0.00,VWS V14.01,2013-09-08 03:31:00,
2013-09-07 23:36:00,59.5,58.9,30.02,WNW,293,1.0,1.0,98,0.00,,---,0.00,VWS V14.01,2013-09-08 03:36:00,
2013-09-07 23:41:00,59.5,59.2,30.02,WNW,293,1.0,1.0,99,0.00,,---,0.00,VWS V14.01,2013-09-08 03:41:00,
2013-09-07 23:46:00,59.5,59.2,30.02,WNW,293,1.0,1.0,99,0.00,,---,0.00,VWS V14.01,2013-09-08 03:46:00,
2013-09-07 23:51:00,59.4,59.1,30.02,WNW,293,0.0,1.0,99,0.00,,---,0.00,VWS V14.01,2013-09-08 03:51:00,
2013-09-07 23:56:00,59.3,59.0,30.02,WNW,293,0.0,2.0,99,0.00,,---,0.00,VWS V14.01,2013-09-08 03:56:00,